﻿測定場所 (Monitoring sites),日付 (Measurement date),時間 (Measurement time),線量率 最大値 (max) μGy/h,線量率 最小値 (min) μGy/h,線量率 平均値 (average) μGy/h,
江戸川 (Edogawa),2017-12-24,23:01～24:00,0.0593,0.0506,0.0557,
江戸川 (Edogawa),2017-12-24,22:01～23:00,0.0546,0.0471,0.0508,
江戸川 (Edogawa),2017-12-24,21:01～22:00,0.0530,0.0475,0.0507,
江戸川 (Edogawa),2017-12-24,20:01～21:00,0.0536,0.0485,0.0508,
江戸川 (Edogawa),2017-12-24,19:01～20:00,0.0548,0.0468,0.0512,
江戸川 (Edogawa),2017-12-24,18:01～19:00,0.0551,0.0474,0.0512,
江戸川 (Edogawa),2017-12-24,17:01～18:00,0.0555,0.0477,0.0515,
江戸川 (Edogawa),2017-12-24,16:01～17:00,0.0560,0.0489,0.0518,
江戸川 (Edogawa),2017-12-24,15:01～16:00,0.0555,0.0476,0.0521,
江戸川 (Edogawa),2017-12-24,14:01～15:00,0.0552,0.0481,0.0517,
江戸川 (Edogawa),2017-12-24,13:01～14:00,0.0562,0.0484,0.0518,
江戸川 (Edogawa),2017-12-24,12:01～13:00,0.0557,0.0492,0.0522,
江戸川 (Edogawa),2017-12-24,11:01～12:00,0.0554,0.0491,0.0517,
江戸川 (Edogawa),2017-12-24,10:01～11:00,0.0545,0.0480,0.0516,
江戸川 (Edogawa),2017-12-24,09:01～10:00,0.0548,0.0476,0.0516,
江戸川 (Edogawa),2017-12-24,08:01～09:00,0.0544,0.0477,0.0515,
江戸川 (Edogawa),2017-12-24,07:01～08:00,0.0539,0.0473,0.0510,
江戸川 (Edogawa),2017-12-24,06:01～07:00,0.0544,0.0477,0.0510,
江戸川 (Edogawa),2017-12-24,05:01～06:00,0.0542,0.0480,0.0515,
江戸川 (Edogawa),2017-12-24,04:01～05:00,0.0541,0.0483,0.0511,
江戸川 (Edogawa),2017-12-24,03:01～04:00,0.0549,0.0471,0.0507,
江戸川 (Edogawa),2017-12-24,02:01～03:00,0.0549,0.0485,0.0512,
江戸川 (Edogawa),2017-12-24,01:01～02:00,0.0540,0.0478,0.0509,
江戸川 (Edogawa),2017-12-24,00:01～01:00,0.0549,0.0481,0.0508,
江戸川 (Edogawa),2017-12-23,23:01～24:00,0.0552,0.0483,0.0512,
江戸川 (Edogawa),2017-12-23,22:01～23:00,0.0546,0.0486,0.0514,
江戸川 (Edogawa),2017-12-23,21:01～22:00,0.0562,0.0478,0.0514,
江戸川 (Edogawa),2017-12-23,20:01～21:00,0.0560,0.0488,0.0514,
江戸川 (Edogawa),2017-12-23,19:01～20:00,0.0549,0.0485,0.0511,
江戸川 (Edogawa),2017-12-23,18:01～19:00,0.0544,0.0479,0.0514,
江戸川 (Edogawa),2017-12-23,17:01～18:00,0.0540,0.0486,0.0513,
江戸川 (Edogawa),2017-12-23,16:01～17:00,0.0548,0.0483,0.0514,
江戸川 (Edogawa),2017-12-23,15:01～16:00,0.0559,0.0486,0.0516,
江戸川 (Edogawa),2017-12-23,14:01～15:00,0.0566,0.0478,0.0520,
江戸川 (Edogawa),2017-12-23,13:01～14:00,0.0553,0.0488,0.0522,
江戸川 (Edogawa),2017-12-23,12:01～13:00,0.0561,0.0498,0.0524,
江戸川 (Edogawa),2017-12-23,11:01～12:00,0.0563,0.0489,0.0531,
江戸川 (Edogawa),2017-12-23,10:01～11:00,0.0562,0.0495,0.0521,
江戸川 (Edogawa),2017-12-23,09:01～10:00,0.0566,0.0492,0.0523,
江戸川 (Edogawa),2017-12-23,08:01～09:00,0.0567,0.0493,0.0523,
江戸川 (Edogawa),2017-12-23,07:01～08:00,0.0564,0.0482,0.0519,
江戸川 (Edogawa),2017-12-23,06:01～07:00,0.0539,0.0483,0.0511,
江戸川 (Edogawa),2017-12-23,05:01～06:00,0.0542,0.0491,0.0517,
江戸川 (Edogawa),2017-12-23,04:01～05:00,0.0550,0.0485,0.0517,
江戸川 (Edogawa),2017-12-23,03:01～04:00,0.0548,0.0468,0.0513,
江戸川 (Edogawa),2017-12-23,02:01～03:00,0.0555,0.0480,0.0514,
江戸川 (Edogawa),2017-12-23,01:01～02:00,0.0548,0.0479,0.0516,
江戸川 (Edogawa),2017-12-23,00:01～01:00,0.0552,0.0488,0.0515,
江戸川 (Edogawa),2017-12-22,23:01～24:00,0.0535,0.0488,0.0511,
江戸川 (Edogawa),2017-12-22,22:01～23:00,0.0546,0.0458,0.0509,
江戸川 (Edogawa),2017-12-22,21:01～22:00,0.0534,0.0473,0.0509,
江戸川 (Edogawa),2017-12-22,20:01～21:00,0.0545,0.0486,0.0512,
江戸川 (Edogawa),2017-12-22,19:01～20:00,0.0547,0.0453,0.0508,
江戸川 (Edogawa),2017-12-22,18:01～19:00,0.0538,0.0487,0.0509,
江戸川 (Edogawa),2017-12-22,17:01～18:00,0.0541,0.0474,0.0509,
江戸川 (Edogawa),2017-12-22,16:01～17:00,0.0551,0.0488,0.0514,
江戸川 (Edogawa),2017-12-22,15:01～16:00,0.0553,0.0481,0.0512,
江戸川 (Edogawa),2017-12-22,14:01～15:00,0.0538,0.0486,0.0515,
江戸川 (Edogawa),2017-12-22,13:01～14:00,0.0560,0.0484,0.0517,
江戸川 (Edogawa),2017-12-22,12:01～13:00,0.0544,0.0497,0.0519,
江戸川 (Edogawa),2017-12-22,11:01～12:00,0.0574,0.0493,0.0524,
江戸川 (Edogawa),2017-12-22,10:01～11:00,0.0550,0.0493,0.0516,
江戸川 (Edogawa),2017-12-22,09:01～10:00,0.0554,0.0482,0.0522,
江戸川 (Edogawa),2017-12-22,08:01～09:00,0.0553,0.0481,0.0517,
江戸川 (Edogawa),2017-12-22,07:01～08:00,0.0546,0.0491,0.0513,
江戸川 (Edogawa),2017-12-22,06:01～07:00,0.0546,0.0478,0.0514,
江戸川 (Edogawa),2017-12-22,05:01～06:00,0.0551,0.0484,0.0515,
江戸川 (Edogawa),2017-12-22,04:01～05:00,0.0550,0.0487,0.0514,
江戸川 (Edogawa),2017-12-22,03:01～04:00,0.0544,0.0474,0.0513,
江戸川 (Edogawa),2017-12-22,02:01～03:00,0.0540,0.0483,0.0511,
江戸川 (Edogawa),2017-12-22,01:01～02:00,0.0545,0.0484,0.0510,
江戸川 (Edogawa),2017-12-22,00:01～01:00,0.0556,0.0461,0.0508,
江戸川 (Edogawa),2017-12-21,23:01～24:00,0.0532,0.0470,0.0503,
江戸川 (Edogawa),2017-12-21,22:01～23:00,0.0540,0.0470,0.0504,
江戸川 (Edogawa),2017-12-21,21:01～22:00,0.0537,0.0476,0.0502,
江戸川 (Edogawa),2017-12-21,20:01～21:00,0.0549,0.0460,0.0501,
江戸川 (Edogawa),2017-12-21,19:01～20:00,0.0537,0.0468,0.0501,
江戸川 (Edogawa),2017-12-21,18:01～19:00,0.0539,0.0472,0.0501,
江戸川 (Edogawa),2017-12-21,17:01～18:00,0.0538,0.0470,0.0506,
江戸川 (Edogawa),2017-12-21,16:01～17:00,0.0541,0.0490,0.0511,
江戸川 (Edogawa),2017-12-21,15:01～16:00,0.0549,0.0483,0.0513,
江戸川 (Edogawa),2017-12-21,14:01～15:00,0.0555,0.0461,0.0514,
江戸川 (Edogawa),2017-12-21,13:01～14:00,0.0547,0.0490,0.0516,
江戸川 (Edogawa),2017-12-21,12:01～13:00,0.0551,0.0487,0.0519,
江戸川 (Edogawa),2017-12-21,11:01～12:00,0.0545,0.0487,0.0514,
江戸川 (Edogawa),2017-12-21,10:01～11:00,0.0547,0.0493,0.0518,
江戸川 (Edogawa),2017-12-21,09:01～10:00,0.0563,0.0469,0.0519,
江戸川 (Edogawa),2017-12-21,08:01～09:00,0.0554,0.0490,0.0522,
江戸川 (Edogawa),2017-12-21,07:01～08:00,0.0555,0.0463,0.0517,
江戸川 (Edogawa),2017-12-21,06:01～07:00,0.0548,0.0472,0.0513,
江戸川 (Edogawa),2017-12-21,05:01～06:00,0.0548,0.0484,0.0514,
江戸川 (Edogawa),2017-12-21,04:01～05:00,0.0550,0.0488,0.0515,
江戸川 (Edogawa),2017-12-21,03:01～04:00,0.0549,0.0479,0.0514,
江戸川 (Edogawa),2017-12-21,02:01～03:00,0.0552,0.0478,0.0514,
江戸川 (Edogawa),2017-12-21,01:01～02:00,0.0556,0.0482,0.0516,
江戸川 (Edogawa),2017-12-21,00:01～01:00,0.0560,0.0489,0.0512,
江戸川 (Edogawa),2017-12-20,23:01～24:00,0.0556,0.0479,0.0511,
江戸川 (Edogawa),2017-12-20,22:01～23:00,0.0535,0.0477,0.0504,
江戸川 (Edogawa),2017-12-20,21:01～22:00,0.0548,0.0482,0.0507,
江戸川 (Edogawa),2017-12-20,20:01～21:00,0.0540,0.0465,0.0508,
江戸川 (Edogawa),2017-12-20,19:01～20:00,0.0545,0.0470,0.0506,
江戸川 (Edogawa),2017-12-20,18:01～19:00,0.0537,0.0481,0.0510,
江戸川 (Edogawa),2017-12-20,17:01～18:00,0.0562,0.0470,0.0510,
江戸川 (Edogawa),2017-12-20,16:01～17:00,0.0542,0.0476,0.0506,
江戸川 (Edogawa),2017-12-20,15:01～16:00,0.0553,0.0473,0.0509,
江戸川 (Edogawa),2017-12-20,14:01～15:00,0.0556,0.0482,0.0511,
江戸川 (Edogawa),2017-12-20,13:01～14:00,0.0553,0.0485,0.0513,
江戸川 (Edogawa),2017-12-20,12:01～13:00,0.0554,0.0481,0.0513,
江戸川 (Edogawa),2017-12-20,11:01～12:00,0.0555,0.0485,0.0514,
江戸川 (Edogawa),2017-12-20,10:01～11:00,0.0550,0.0483,0.0511,
江戸川 (Edogawa),2017-12-20,09:01～10:00,0.0543,0.0480,0.0508,
江戸川 (Edogawa),2017-12-20,08:01～09:00,0.0541,0.0479,0.0509,
江戸川 (Edogawa),2017-12-20,07:01～08:00,0.0527,0.0477,0.0503,
江戸川 (Edogawa),2017-12-20,06:01～07:00,0.0538,0.0462,0.0506,
江戸川 (Edogawa),2017-12-20,05:01～06:00,0.0539,0.0470,0.0508,
江戸川 (Edogawa),2017-12-20,04:01～05:00,0.0540,0.0476,0.0506,
江戸川 (Edogawa),2017-12-20,03:01～04:00,0.0561,0.0473,0.0507,
江戸川 (Edogawa),2017-12-20,02:01～03:00,0.0529,0.0478,0.0508,
江戸川 (Edogawa),2017-12-20,01:01～02:00,0.0544,0.0481,0.0509,
江戸川 (Edogawa),2017-12-20,00:01～01:00,0.0536,0.0486,0.0511,
江戸川 (Edogawa),2017-12-19,23:01～24:00,0.0543,0.0480,0.0510,
江戸川 (Edogawa),2017-12-19,22:01～23:00,0.0543,0.0482,0.0509,
江戸川 (Edogawa),2017-12-19,21:01～22:00,0.0541,0.0484,0.0512,
江戸川 (Edogawa),2017-12-19,20:01～21:00,0.0539,0.0482,0.0510,
江戸川 (Edogawa),2017-12-19,19:01～20:00,0.0548,0.0461,0.0506,
江戸川 (Edogawa),2017-12-19,18:01～19:00,0.0535,0.0473,0.0507,
江戸川 (Edogawa),2017-12-19,17:01～18:00,0.0542,0.0472,0.0507,
江戸川 (Edogawa),2017-12-19,16:01～17:00,0.0535,0.0473,0.0510,
江戸川 (Edogawa),2017-12-19,15:01～16:00,0.0553,0.0486,0.0514,
江戸川 (Edogawa),2017-12-19,14:01～15:00,0.0550,0.0477,0.0512,
江戸川 (Edogawa),2017-12-19,13:01～14:00,0.0554,0.0468,0.0510,
江戸川 (Edogawa),2017-12-19,12:01～13:00,0.0565,0.0468,0.0516,
江戸川 (Edogawa),2017-12-19,11:01～12:00,0.0555,0.0478,0.0514,
江戸川 (Edogawa),2017-12-19,10:01～11:00,0.0557,0.0493,0.0524,
江戸川 (Edogawa),2017-12-19,09:01～10:00,0.0556,0.0493,0.0523,
江戸川 (Edogawa),2017-12-19,08:01～09:00,0.0557,0.0479,0.0519,
江戸川 (Edogawa),2017-12-19,07:01～08:00,0.0553,0.0483,0.0517,
江戸川 (Edogawa),2017-12-19,06:01～07:00,0.0546,0.0481,0.0516,
江戸川 (Edogawa),2017-12-19,05:01～06:00,0.0541,0.0487,0.0514,
江戸川 (Edogawa),2017-12-19,04:01～05:00,0.0545,0.0473,0.0516,
江戸川 (Edogawa),2017-12-19,03:01～04:00,0.0533,0.0465,0.0510,
江戸川 (Edogawa),2017-12-19,02:01～03:00,0.0544,0.0480,0.0509,
江戸川 (Edogawa),2017-12-19,01:01～02:00,0.0561,0.0483,0.0517,
江戸川 (Edogawa),2017-12-19,00:01～01:00,0.0555,0.0480,0.0518,
江戸川 (Edogawa),2017-12-18,23:01～24:00,0.0547,0.0480,0.0511,
江戸川 (Edogawa),2017-12-18,22:01～23:00,0.0540,0.0478,0.0508,
江戸川 (Edogawa),2017-12-18,21:01～22:00,0.0544,0.0480,0.0505,
江戸川 (Edogawa),2017-12-18,20:01～21:00,0.0540,0.0480,0.0507,
江戸川 (Edogawa),2017-12-18,19:01～20:00,0.0547,0.0475,0.0507,
江戸川 (Edogawa),2017-12-18,18:01～19:00,0.0553,0.0473,0.0506,
江戸川 (Edogawa),2017-12-18,17:01～18:00,0.0543,0.0475,0.0507,
江戸川 (Edogawa),2017-12-18,16:01～17:00,0.0537,0.0477,0.0507,
江戸川 (Edogawa),2017-12-18,15:01～16:00,0.0545,0.0482,0.0510,
江戸川 (Edogawa),2017-12-18,14:01～15:00,0.0547,0.0482,0.0513,
江戸川 (Edogawa),2017-12-18,13:01～14:00,0.0543,0.0485,0.0515,
江戸川 (Edogawa),2017-12-18,12:01～13:00,0.0544,0.0486,0.0513,
江戸川 (Edogawa),2017-12-18,11:01～12:00,0.0549,0.0477,0.0515,
江戸川 (Edogawa),2017-12-18,10:01～11:00,0.0544,0.0480,0.0507,
江戸川 (Edogawa),2017-12-18,09:01～10:00,0.0540,0.0473,0.0507,
江戸川 (Edogawa),2017-12-18,08:01～09:00,0.0537,0.0472,0.0506,
江戸川 (Edogawa),2017-12-18,07:01～08:00,0.0537,0.0475,0.0504,
江戸川 (Edogawa),2017-12-18,06:01～07:00,0.0535,0.0476,0.0504,
江戸川 (Edogawa),2017-12-18,05:01～06:00,0.0531,0.0473,0.0506,
江戸川 (Edogawa),2017-12-18,04:01～05:00,0.0547,0.0457,0.0505,
江戸川 (Edogawa),2017-12-18,03:01～04:00,0.0541,0.0476,0.0506,
江戸川 (Edogawa),2017-12-18,02:01～03:00,0.0538,0.0470,0.0504,
江戸川 (Edogawa),2017-12-18,01:01～02:00,0.0548,0.0476,0.0509,
江戸川 (Edogawa),2017-12-18,00:01～01:00,0.0533,0.0457,0.0506,
